Vertical_Velocity
0 -0 1 4 1 8 -2 14 12 96 68 5 6 12 3 -3 -2 1 1 -1 2 2 -2 2 3 2 -2 -3 -2 0 -0 -3
0 1 0 -2 1 -1 -2 8 10 -37 22 34 21 24 6 -5 -2 -16 -1 -6 1 -1 1 9 3 -4 -2 -3 -6 4 2 1
-3 -1 -1 0 6 -2 11 14 8 -40 -12 26 33 19 -1 -6 -13 2 5 -5 -1 4 -1 -1 1 1 -1 -7 2 -3 3 -4
-3 -3 1 0 4 2 -6 -3 -8 -6 -29 -20 27 9 -3 -0 -3 0 4 1 1 2 4 -0 1 1 -2 -9 -1 6 -2 -2
-5 -2 -0 2 -1 2 -3 8 5 11 -26 -3 16 10 1 -1 -2 -11 4 3 -4 -0 -1 5 -8 4 2 -8 -0 4 -1 3
-4 -4 -2 -1 -0 -4 -2 -2 2 -0 -15 -13 10 6 1 -3 -3 1 -2 4 -3 4 -4 2 -2 3 -1 -5 4 0 -4 0
-2 -7 -1 2 0 0 -1 3 -1 -4 3 5 -4 -5 -3 -2 -6 2 -4 3 -1 3 0 -1 -3 4 2 -4 2 0 -4 -1
1 2 -3 1 -1 -1 -2 -4 -2 -1 -2 -13 3 8 -4 5 -6 -0 3 -0 0 3 4 -1 1 5 1 -6 3 1 -2 3
-0 -0 -6 1 3 -1 -3 -1 3 6 3 -0 6 2 -4 -4 4 -4 -2 2 0 0 -0 -0 -2 6 -2 -2 3 0 -2 4
2 1 5 -5 4 -1 -2 2 -2 -0 -3 -5 -3 -3 -8 8 5 -2 4 -2 1 -1 2 -0 -3 6 1 -6 0 -1 -6 2
2 3 -1 4 1 7 -3 -10 -4 2 3 10 11 2 -8 -1 10 -0 0 -4 -4 -1 3 -2 -1 3 3 1 -4 2 2 -0
0 2 -0 1 -2 1 1 5 1 16 -0 1 3 -1 1 5 3 -4 4 -3 0 -1 0 -2 4 1 3 3 -5 -4 3 4
0 1 1 0 3 -3 -12 3 3 4 11 14 7 -3 1 -0 -1 -4 -10 11 4 4 -2 2 -1 -3 5 -3 2 1 -4 -6
-0 1 1 1 3 3 0 2 -9 -0 2 16 -1 -4 2 8 -3 -6 -1 5 1 4 3 -3 -1 -3 7 -2 -2 -2 -0 -1
-0 -1 -0 -1 0 3 1 8 2 2 -6 16 -3 -5 3 0 -7 -3 -3 -7 -2 3 4 -0 -1 -7 -4 -1 -2 -7 3 -1
0 -2 0 -3 -3 1 2 0 -1 -11 1 9 8 4 -2 5 -1 1 -1 2 -0 0 0 -4 -12 -9 -3 -0 -1 -1 -2 2
-1 -1 -0 -1 -4 -3 -1 -3 -5 -6 -7 8 -3 -3 5 -3 -3 3 5 -2 0 -0 -2 -5 -5 -9 1 3 2 -0 1 -2
-1 -0 -1 -0 -2 -4 -2 -1 -3 -4 -2 -4 -1 2 4 0 1 2 0 -4 -7 -4 2 3 -11 1 1 2 -5 -1 -2 -0
0 2 -0 -3 -1 -1 -2 -1 0 -0 2 2 -3 0 -3 2 1 -0 1 2 3 -3 -0 -2 -12 -0 1 1 9 2 -0 5
-3 -2 2 1 -3 -1 3 3 1 2 0 -1 -3 -5 -3 -2 1 -0 -2 -1 -2 -1 -1 -0 1 15 3 3 -2 -1 3 8
Height
3099 3100 3101 3103 3105 3106 3106 3110 3107 3105 3108 3119 3125 3127 3128 3132 3135 3139 3142 3144 3148 3151 3152 3155 3156 3157 3156 3158 3164 3166 3167 3169
3091 3093 3096 3097 3099 3100 3102 3105 3105 3105 3105 3112 3120 3115 3125 3130 3134 3137 3140 3143 3146 3148 3153 3153 3156 3156 3156 3160 3163 3166 3168 3169
3086 3089 3091 3091 3094 3094 3098 3102 3103 3103 3107 3105 3116 3120 3123 3128 3131 3136 3138 3141 3145 3148 3150 3151 3154 3156 3158 3158 3162 3166 3166 3169
3084 3086 3087 3087 3089 3091 3094 3097 3099 3099 3101 3101 3114 3119 3123 3125 3129 3134 3137 3140 3142 3145 3147 3151 3153 3156 3155 3158 3163 3163 3167 3170
3083 3083 3083 3082 3083 3086 3089 3092 3095 3097 3097 3095 3110 3115 3119 3122 3127 3131 3136 3136 3140 3143 3145 3149 3153 3154 3155 3159 3161 3165 3166 3169
3081 3080 3080 3079 3080 3081 3083 3084 3089 3088 3091 3096 3105 3112 3116 3121 3126 3131 3134 3136 3139 3142 3146 3149 3151 3153 3154 3156 3161 3165 3166 3169
3076 3077 3078 3078 3079 3079 3079 3080 3083 3085 3085 3093 3103 3109 3113 3118 3121 3128 3132 3134 3137 3141 3145 3147 3149 3152 3154 3156 3160 3164 3166 3168
3072 3072 3074 3074 3076 3077 3077 3077 3081 3085 3091 3096 3102 3105 3111 3115 3121 3126 3130 3132 3136 3140 3143 3144 3149 3152 3153 3155 3159 3163 3165 3168
3068 3066 3068 3071 3072 3075 3076 3077 3081 3085 3088 3093 3099 3104 3109 3115 3120 3122 3127 3130 3134 3137 3141 3143 3147 3151 3152 3155 3157 3161 3163 3166
3066 3063 3063 3067 3068 3072 3074 3077 3079 3082 3085 3088 3095 3100 3105 3110 3114 3119 3124 3127 3131 3135 3139 3143 3146 3150 3151 3153 3156 3160 3163 3165
3064 3061 3060 3063 3065 3066 3070 3074 3077 3079 3082 3086 3091 3096 3101 3105 3108 3115 3120 3124 3128 3133 3137 3140 3144 3148 3150 3152 3155 3159 3162 3164
3062 3059 3058 3060 3065 3067 3067 3068 3070 3073 3076 3082 3087 3093 3095 3101 3105 3111 3117 3121 3126 3130 3134 3137 3142 3146 3148 3150 3153 3156 3159 3162
3061 3058 3056 3056 3058 3061 3065 3065 3064 3066 3072 3077 3081 3087 3091 3097 3100 3106 3111 3117 3123 3127 3132 3135 3138 3142 3145 3148 3150 3153 3155 3157
3059 3057 3056 3055 3055 3056 3057 3057 3058 3061 3066 3072 3079 3083 3089 3093 3097 3102 3108 3112 3118 3123 3127 3131 3134 3138 3142 3144 3147 3150 3152 3155
3057 3056 3055 3053 3053 3054 3054 3054 3056 3058 3063 3069 3075 3080 3085 3090 3093 3098 3103 3109 3112 3118 3124 3127 3131 3133 3138 3141 3144 3146 3149 3149
3056 3055 3054 3052 3050 3052 3053 3055 3055 3055 3060 3066 3072 3077 3082 3087 3090 3096 3099 3104 3111 3117 3121 3124 3125 3131 3135 3137 3140 3143 3144 3146
3054 3053 3053 3052 3050 3050 3051 3053 3054 3056 3062 3067 3071 3075 3079 3084 3089 3093 3097 3102 3109 3113 3117 3119 3124 3128 3132 3134 3137 3138 3139 3140
3053 3052 3052 3051 3050 3050 3051 3052 3054 3056 3060 3064 3070 3073 3078 3080 3084 3089 3094 3100 3104 3110 3114 3117 3121 3124 3127 3130 3131 3133 3135 3135
3052 3051 3051 3052 3051 3050 3050 3052 3055 3057 3061 3063 3066 3070 3072 3076 3080 3085 3089 3095 3100 3103 3108 3111 3114 3117 3121 3124 3127 3128 3129 3130
3050 3050 3049 3051 3051 3051 3051 3051 3053 3056 3058 3061 3064 3066 3070 3073 3077 3082 3086 3090 3094 3098 3101 3105 3109 3112 3115 3117 3119 3121 3124 3125